Location: Peterborough
(44.3091°N, 78.3197°W)
Time: 18:25:33
(UTC-04:00)

Vanguard 2 Rocket - Pass Details

Date: 25 March 2023
Orbit: 554 x 3314 km, 32.9° (Epoch: 05 June)

Event Time Altitude Azimuth Distance (km) Brightness Sun altitude
Exits shadow 04:31:18 10° 192° (SSW) 6,258 10.7 -27.2°
Drops below altitude 10° 04:31:19 10° 192° (SSW) 6,261 10.7 -27.2°
Sets 04:39:30 0° 173° (S) 7,202 11.2 -26.0°
